• In India
  • List of Countries
  • For 7 days
  • Water Temperature
  • Satellite Maps
  • Weather Map
  • Weather Widgets
  • user-avatar
    Login

    Hourly Weather New Delhi

    Today, 21 October, Saturday

    Time Temperature Precipitation Wind Pressure Humidity
    00:00 +30°C° 0 mm 1 mps 735 mmHg 25%
    01:00 +29°C° 0 mm 1 mps 735 mmHg 25%
    02:00 +29°C° 0 mm 1 mps 735 mmHg 25%
    03:00 +28°C° 0 mm 1 mps 735 mmHg 26%
    04:00 +28°C° 0 mm 1 mps 735 mmHg 26%
    05:00 +28°C° 0 mm 1 mps 735 mmHg 26%
    06:00 +28°C° 0 mm 1 mps 736 mmHg 25%
    07:00 +29°C° 0 mm 1 mps 736 mmHg 25%
    08:00 +30°C° 0 mm 1 mps 736 mmHg 24%
    09:00 +32°C° 0 mm 1 mps 736 mmHg 21%
    10:00 +35°C° 0 mm 2 mps 736 mmHg 18%
    11:00 +37°C° 0 mm 2 mps 736 mmHg 15%
    12:00 +38°C° 0 mm 3 mps 735 mmHg 14%
    13:00 +38°C° 0 mm 4 mps 734 mmHg 12%
    14:00 +40°C° 0 mm 4 mps 734 mmHg 11%
    15:00 +38°C° 0 mm 4 mps 733 mmHg 12%
    16:00 +36°C° 0 mm 3 mps 733 mmHg 14%
    17:00 +35°C° 0 mm 2 mps 733 mmHg 15%
    18:00 +34°C° 0 mm 2 mps 733 mmHg 15%
    19:00 +32°C° 0 mm 2 mps 733 mmHg 16%
    20:00 +31°C° 0 mm 2 mps 734 mmHg 16%
    21:00 +31°C° 0 mm 2 mps 734 mmHg 16%
    22:00 +30°C° 0 mm 2 mps 734 mmHg 16%
    23:00 +30°C° 0 mm 2 mps 734 mmHg 17%

    Tomorrow, 22 October, Sunday

    Time Temperature Precipitation Wind Pressure Humidity
    00:00 +29°C° 0 mm 2 mps 734 mmHg 17%
    01:00 +29°C° 0 mm 2 mps 734 mmHg 17%
    02:00 +28°C° 0 mm 1 mps 733 mmHg 17%
    03:00 +28°C° 0 mm 1 mps 734 mmHg 18%
    04:00 +27°C° 0 mm 1 mps 734 mmHg 18%
    05:00 +27°C° 0 mm 1 mps 734 mmHg 18%
    06:00 +28°C° 0 mm 1 mps 734 mmHg 18%
    07:00 +29°C° 0 mm 1 mps 735 mmHg 18%
    08:00 +30°C° 0 mm 1 mps 735 mmHg 18%
    09:00 +32°C° 0 mm 1 mps 736 mmHg 16%
    10:00 +34°C° 0 mm 1 mps 736 mmHg 14%
    11:00 +36°C° 0 mm 1 mps 736 mmHg 12%
    12:00 +38°C° 0 mm 2 mps 735 mmHg 11%
    13:00 +38°C° 0 mm 3 mps 734 mmHg 10%
    14:00 +39°C° 0 mm 3 mps 734 mmHg 9%
    15:00 +38°C° 0 mm 3 mps 734 mmHg 10%
    16:00 +36°C° 0 mm 2 mps 733 mmHg 12%
    17:00 +35°C° 0 mm 2 mps 733 mmHg 13%
    18:00 +33°C° 0 mm 1 mps 733 mmHg 14%
    19:00 +32°C° 0 mm 1 mps 734 mmHg 14%
    20:00 +29°C° 0 mm 0 mps 734 mmHg 15%
    21:00 +31°C° 0 mm 1 mps 734 mmHg 15%
    22:00 +30°C° 0 mm 1 mps 734 mmHg 16%
    23:00 +30°C° 0 mm 1 mps 735 mmHg 17%

    Day after tomorrow, 23 October, Monday

    Time Temperature Precipitation Wind Pressure Humidity
    00:00 +29°C° 0 mm 1 mps 735 mmHg 18%
    01:00 +28°C° 0 mm 1 mps 735 mmHg 19%
    02:00 +28°C° 0 mm 2 mps 734 mmHg 20%
    03:00 +27°C° 0 mm 2 mps 735 mmHg 20%
    04:00 +27°C° 0 mm 1 mps 735 mmHg 20%
    05:00 +27°C° 0 mm 1 mps 735 mmHg 20%
    06:00 +27°C° 0 mm 1 mps 736 mmHg 21%
    07:00 +28°C° 0 mm 1 mps 736 mmHg 22%
    08:00 +29°C° 0 mm 2 mps 737 mmHg 23%
    09:00 +31°C° 0 mm 2 mps 737 mmHg 21%
    10:00 +34°C° 0 mm 2 mps 737 mmHg 19%
    11:00 +36°C° 0 mm 2 mps 737 mmHg 17%
    12:00 +36°C° 0 mm 2 mps 737 mmHg 15%
    13:00 +37°C° 0 mm 2 mps 736 mmHg 14%
    14:00 +37°C° 0 mm 1 mps 735 mmHg 13%
    15:00 +37°C° 0 mm 2 mps 735 mmHg 15%
    16:00 +36°C° 0 mm 2 mps 735 mmHg 16%
    17:00 +35°C° 0 mm 2 mps 735 mmHg 18%
    18:00 +34°C° 0 mm 2 mps 735 mmHg 19%
    19:00 +32°C° 0 mm 2 mps 736 mmHg 21%
    20:00 +31°C° 0 mm 2 mps 736 mmHg 23%
    21:00 +30°C° 0 mm 2 mps 737 mmHg 24%
    22:00 +29°C° 0 mm 2 mps 737 mmHg 26%
    23:00 +29°C° 0 mm 2 mps 737 mmHg 27%

    24 October, Tuesday

    Time Temperature Precipitation Wind Pressure Humidity
    00:00 +28°C° 0 mm 2 mps 737 mmHg 28%
    01:00 +27°C° 0 mm 2 mps 736 mmHg 29%
    02:00 +27°C° 0 mm 2 mps 736 mmHg 31%
    03:00 +26°C° 0 mm 2 mps 736 mmHg 33%
    04:00 +26°C° 0 mm 2 mps 737 mmHg 35%
    05:00 +25°C° 0 mm 2 mps 737 mmHg 36%
    06:00 +26°C° 0 mm 2 mps 737 mmHg 36%
    07:00 +26°C° 0 mm 2 mps 738 mmHg 36%
    08:00 +27°C° 0 mm 2 mps 739 mmHg 36%
    09:00 +29°C° 0 mm 2 mps 739 mmHg 32%
    10:00 +31°C° 0 mm 2 mps 739 mmHg 27%
    11:00 +34°C° 0 mm 2 mps 739 mmHg 23%
    12:00 +35°C° 0 mm 2 mps 739 mmHg 20%
    13:00 +36°C° 0 mm 2 mps 738 mmHg 17%
    14:00 +37°C° 0 mm 2 mps 737 mmHg 15%
    15:00 +36°C° 0 mm 2 mps 737 mmHg 16%
    16:00 +35°C° 0 mm 2 mps 737 mmHg 17%
    17:00 +34°C° 0 mm 2 mps 737 mmHg 18%
    18:00 +32°C° 0 mm 2 mps 738 mmHg 20%
    19:00 +31°C° 0 mm 2 mps 738 mmHg 23%
    20:00 +30°C° 0 mm 1 mps 739 mmHg 25%
    21:00 +29°C° 0 mm 1 mps 739 mmHg 28%
    22:00 +28°C° 0 mm 1 mps 739 mmHg 31%
    23:00 +28°C° 0 mm 1 mps 739 mmHg 34%

    25 October, Wednesday

    Time Temperature Precipitation Wind Pressure Humidity
    00:00 +27°C° 0 mm 1 mps 739 mmHg 36%
    01:00 +27°C° 0 mm 1 mps 739 mmHg 38%
    02:00 +26°C° 0 mm 1 mps 739 mmHg 40%
    03:00 +26°C° 0 mm 1 mps 739 mmHg 42%
    04:00 +25°C° 0 mm 1 mps 739 mmHg 43%
    05:00 +25°C° 0 mm 1 mps 739 mmHg 45%
    06:00 +26°C° 0 mm 1 mps 740 mmHg 44%
    07:00 +27°C° 0 mm 1 mps 741 mmHg 43%
    08:00 +27°C° 0 mm 1 mps 742 mmHg 41%
    09:00 +29°C° 0 mm 1 mps 742 mmHg 37%
    10:00 +31°C° 0 mm 2 mps 742 mmHg 32%
    11:00 +34°C° 0 mm 2 mps 742 mmHg 28%
    12:00 +34°C° 0 mm 1 mps 741 mmHg 24%
    13:00 +35°C° 0 mm 1 mps 741 mmHg 21%
    14:00 +34°C° 0 mm 0 mps 740 mmHg 18%
    15:00 +32°C° 0 mm 0 mps 740 mmHg 19%
    16:00 +33°C° 0 mm 1 mps 740 mmHg 20%
    17:00 +32°C° 0 mm 1 mps 739 mmHg 21%
    18:00 +32°C° 0 mm 1 mps 740 mmHg 22%
    19:00 +31°C° 0 mm 2 mps 740 mmHg 24%
    20:00 +30°C° 0 mm 2 mps 740 mmHg 26%
    21:00 +29°C° 0 mm 2 mps 740 mmHg 28%
    22:00 +28°C° 0 mm 2 mps 740 mmHg 30%
    23:00 +28°C° 0 mm 2 mps 740 mmHg 32%

    26 October, Thursday

    Time Temperature Precipitation Wind Pressure Humidity
    00:00 +27°C° 0 mm 2 mps 740 mmHg 34%
    01:00 +27°C° 0 mm 2 mps 740 mmHg 35%
    02:00 +26°C° 0 mm 1 mps 740 mmHg 37%
    03:00 +26°C° 0 mm 2 mps 740 mmHg 38%
    04:00 +25°C° 0 mm 2 mps 740 mmHg 39%
    05:00 +25°C° 0 mm 2 mps 740 mmHg 40%
    06:00 +26°C° 0 mm 2 mps 741 mmHg 40%
    07:00 +26°C° 0 mm 2 mps 741 mmHg 39%
    08:00 +27°C° 0 mm 2 mps 742 mmHg 38%
    09:00 +29°C° 0 mm 2 mps 742 mmHg 33%
    10:00 +31°C° 0 mm 2 mps 742 mmHg 29%
    11:00 +34°C° 0 mm 3 mps 742 mmHg 24%
    12:00 +35°C° 0 mm 2 mps 741 mmHg 21%
    13:00 +36°C° 0 mm 2 mps 741 mmHg 18%
    14:00 +35°C° 0 mm 1 mps 740 mmHg 15%
    15:00 +34°C° 0 mm 1 mps 740 mmHg 16%
    16:00 +33°C° 0 mm 1 mps 740 mmHg 17%
    17:00 +32°C° 0 mm 1 mps 740 mmHg 18%
    18:00 +31°C° 0 mm 1 mps 740 mmHg 20%
    19:00 +30°C° 0 mm 1 mps 740 mmHg 22%
    20:00 +29°C° 0 mm 2 mps 740 mmHg 24%
    21:00 +29°C° 0 mm 2 mps 740 mmHg 27%
    22:00 +28°C° 0 mm 2 mps 740 mmHg 29%
    23:00 +27°C° 0 mm 2 mps 740 mmHg 32%
    Show more